TimeEST,TemperatureF,Dew PointF,Humidity,Sea Level PressureIn,VisibilityMPH,Wind Direction,Wind SpeedMPH,Gust SpeedMPH,PrecipitationIn,Events,Conditions,WindDirDegrees,DateUTC
12:51 AM,27.0,12.9,56,30.38,10.0,WNW,5.8,-,N/A,,Clear,300,2013-11-13 05:51:00
1:51 AM,30.0,12.9,49,30.38,10.0,WNW,3.5,-,N/A,,Clear,290,2013-11-13 06:51:00
2:51 AM,25.0,14.0,63,30.38,10.0,NW,5.8,-,N/A,,Clear,320,2013-11-13 07:51:00
3:51 AM,27.0,14.0,58,30.38,10.0,NW,4.6,-,N/A,,Clear,310,2013-11-13 08:51:00
4:51 AM,26.1,14.0,60,30.39,10.0,Calm,Calm,-,N/A,,Clear,0,2013-11-13 09:51:00
5:51 AM,26.1,12.9,58,30.40,10.0,NW,4.6,-,N/A,,Clear,310,2013-11-13 10:51:00
6:51 AM,27.0,12.9,56,30.42,10.0,NNW,11.5,-,N/A,,Clear,330,2013-11-13 11:51:00
7:51 AM,30.9,12.0,46,30.44,10.0,NNW,11.5,18.4,N/A,,Clear,340,2013-11-13 12:51:00
8:51 AM,34.0,10.9,38,30.44,10.0,NNW,15.0,20.7,N/A,,Clear,340,2013-11-13 13:51:00
9:51 AM,36.0,10.0,34,30.45,10.0,NNW,15.0,21.9,N/A,,Clear,340,2013-11-13 14:51:00
10:51 AM,39.0,10.0,30,30.43,10.0,NNW,19.6,25.3,N/A,,Clear,330,2013-11-13 15:51:00
11:51 AM,39.9,10.9,31,30.41,10.0,NNW,20.7,25.3,N/A,,Clear,330,2013-11-13 16:51:00
12:51 PM,42.1,12.0,29,30.40,10.0,NNW,16.1,21.9,N/A,,Clear,340,2013-11-13 17:51:00
1:51 PM,42.1,12.9,31,30.39,10.0,NW,13.8,21.9,N/A,,Clear,310,2013-11-13 18:51:00
2:51 PM,43.0,14.0,31,30.39,10.0,NW,13.8,-,N/A,,Clear,320,2013-11-13 19:51:00
3:51 PM,41.0,16.0,36,30.40,10.0,NNW,13.8,-,N/A,,Clear,330,2013-11-13 20:51:00
4:51 PM,37.9,18.0,45,30.40,10.0,WNW,12.7,-,N/A,,Clear,300,2013-11-13 21:51:00
5:51 PM,35.1,18.0,50,30.41,10.0,WSW,5.8,-,N/A,,Clear,240,2013-11-13 22:51:00
6:51 PM,35.1,19.0,52,30.42,10.0,WSW,4.6,-,N/A,,Clear,250,2013-11-13 23:51:00
7:51 PM,33.1,19.0,56,30.40,10.0,West,5.8,-,N/A,,Clear,260,2013-11-14 00:51:00
8:51 PM,32.0,19.0,59,30.40,10.0,WSW,3.5,-,N/A,,Clear,240,2013-11-14 01:51:00
9:51 PM,32.0,19.0,59,30.39,10.0,WSW,5.8,-,N/A,,Clear,250,2013-11-14 02:51:00
10:51 PM,32.0,19.0,59,30.38,10.0,West,5.8,-,N/A,,Clear,270,2013-11-14 03:51:00
11:51 PM,30.0,19.0,64,30.37,10.0,WSW,8.1,-,N/A,,Clear,250,2013-11-14 04:51:00